C31FR-13 Weather Reports


time (UTC)temp
F
wind
direction
speed
knots
gust
knots
rain 1hr
in
rain 24hr
in
rain mn
in
humidity
%
barometer
mb
20260510041102 53 0.0 0.0 0.00 0.00 0.00 83 1012.4
20260510040602 53 0.0 0.0 0.00 0.00 0.00 82 1012.5
20260510040104 53 0.0 0.0 0.00 0.00 0.00 84 1012.5
20260510035602 53 0.0 0.0 0.00 0.00 0.00 83 1012.7
20260510034602 53 0.0 0.0 0.00 0.00 0.00 85 1012.6
20260510034103 53 0.0 0.0 0.00 0.00 0.00 85 1012.7
20260510033602 53 0.0 0.0 0.00 0.00 0.00 84 1012.7
20260510033103 53 0.0 0.0 0.00 0.00 0.00 84 1012.7
20260510032603 52 0.0 0.0 0.00 0.00 0.00 86 1012.8
20260510032102 53 0.0 0.0 0.00 0.00 0.00 85 1012.8
20260510031602 53 0.0 0.0 0.00 0.00 0.00 85 1012.9
20260510031102 53 0.0 0.0 0.00 0.00 0.00 85 1012.9
20260510030602 53 0.0 0.0 0.00 0.00 0.00 85 1012.9
20260510025602 52 0.0 0.0 0.00 0.00 0.00 88 1012.9
20260510025103 52 0.0 0.0 0.00 0.00 0.00 85 1012.9
20260510024603 53 0.0 0.0 0.00 0.00 0.00 86 1012.8
20260510024103 52 0.0 0.0 0.00 0.00 0.00 87 1012.8
20260510023602 52 0.0 0.0 0.00 0.00 0.00 88 1012.8
20260510023103 53 0.0 0.0 0.00 0.00 0.00 87 1012.8
20260510022603 53 0.0 0.0 0.00 0.00 0.00 87 1012.9
20260510022102 53 0.0 0.0 0.00 0.00 0.00 86 1012.9
20260510021602 53 0.0 0.0 0.00 0.00 0.00 85 1012.9
20260510021102 52 0.0 0.0 0.00 0.00 0.00 86 1012.9
20260510020602 52 0.0 0.0 0.00 0.00 0.00 85 1012.9
20260510015602 53 0.0 0.0 0.00 0.00 0.00 85 1012.7
20260510015102 52 0.0 0.0 0.00 0.00 0.00 86 1012.6
20260510014603 53 0.0 0.0 0.00 0.00 0.00 86 1012.6
20260510014103 53 0.0 0.0 0.00 0.00 0.00 86 1012.6
20260510013601 53 0.0 0.0 0.00 0.00 0.00 89 1012.6
20260510013102 53 0.0 0.0 0.00 0.00 0.00 87 1012.7
20260510012602 53 0.0 0.0 0.00 0.00 0.00 84 1012.7
20260510012102 53 0.0 0.0 0.00 0.00 0.00 85 1012.7
20260510011603 52 0.0 0.0 0.00 0.00 0.00 87 1012.7
20260510011102 52 0.0 0.0 0.00 0.00 0.00 88 1012.7
20260510010602 52 0.0 0.0 0.00 0.00 0.00 87 1012.7
20260510005102 53 0.0 0.0 0.00 0.00 0.00 88 1012.6
20260510004603 53 0.0 0.0 0.00 0.00 0.00 86 1012.7
20260510004102 53 0.0 0.0 0.00 0.00 0.00 87 1013.0
20260510003603 53 0.0 0.0 0.00 0.00 0.00 87 1013.0
20260510003102 53 0.0 0.0 0.00 0.00 0.00 87 1013.0
20260510002602 52 0.0 0.0 0.00 0.00 0.00 89 1013.0
20260510002103 51 0.0 0.0 0.00 0.00 0.00 92 1012.9
20260510001602 52 0.0 0.0 0.00 0.00 0.00 90 1012.9
20260510001102 52 0.0 0.0 0.00 0.00 0.00 89 1012.9
20260510000603 52 0.0 0.0 0.00 0.00 0.00 90 1013.0
20260509235602 52 0.0 0.0 0.00 0.00 0.00 89 1013.0
20260509235102 52 0.0 0.0 0.00 0.00 0.00 90 1013.1
20260509234602 53 0.0 0.0 0.00 0.00 0.00 85 1013.1
20260509234102 53 0.0 0.0 0.00 0.00 0.00 83 1013.1
20260509233603 53 0.0 0.0 0.00 0.00 0.00 84 1013.2
20260509233103 53 0.0 0.0 0.00 0.00 0.00 82 1013.2
20260509232602 53 0.0 0.0 0.00 0.00 0.00 85 1013.1
20260509232103 53 0.0 0.0 0.00 0.00 0.00 87 1013.3
20260509231602 52 0.0 0.0 0.00 0.00 0.00 89 1013.3
20260509231102 52 0.0 0.0 0.00 0.00 0.00 90 1013.4
20260509230602 52 0.0 0.0 0.00 0.00 0.00 90 1013.5
20260509225602 52 0.0 0.0 0.00 0.00 0.00 88 1013.5
20260509225102 52 0.0 0.0 0.00 0.00 0.00 89 1013.5
20260509224602 52 0.0 0.0 0.00 0.00 0.00 90 1013.5
20260509224102 52 0.0 0.0 0.00 0.00 0.00 89 1013.6
20260509223602 53 0.0 0.0 0.00 0.00 0.00 88 1013.6
20260509223102 53 0.0 0.0 0.00 0.00 0.00 86 1013.5
20260509222603 54 0.0 0.0 0.00 0.00 0.00 85 1013.5
20260509222102 53 0.0 0.0 0.00 0.00 0.00 87 1013.5
20260509221602 53 0.0 0.0 0.00 0.00 0.00 87 1013.5
20260509221102 53 0.0 0.0 0.00 0.00 0.00 88 1013.4
20260509220602 53 0.0 0.0 0.00 0.00 0.00 85 1013.4
20260509215602 53 0.0 0.0 0.00 0.00 0.00 85 1013.4
20260509215102 53 0.0 0.0 0.00 0.00 0.00 87 1013.4
20260509214603 53 0.0 0.0 0.00 0.00 0.00 87 1013.4
20260509214102 53 0.0 0.0 0.00 0.00 0.00 88 1013.4
20260509213602 53 0.0 0.0 0.00 0.00 0.00 87 1013.3
20260509213102 53 0.0 0.0 0.00 0.00 0.00 85 1013.2
20260509212601 53 0.0 0.0 0.00 0.00 0.00 83 1013.2
20260509212103 53 0.0 0.0 0.00 0.00 0.00 81 1013.1
20260509211103 54 0.0 0.0 0.00 0.00 0.00 79 1013.0
20260509210603 54 0.0 0.0 0.00 0.00 0.00 78 1012.9
20260509205603 54 0.0 0.0 0.00 0.00 0.00 78 1012.8
20260509205102 54 0.0 0.0 0.00 0.00 0.00 77 1012.8
20260509204603 54 0.0 0.0 0.00 0.00 0.00 77 1012.8
20260509204103 54 0.0 0.0 0.00 0.00 0.00 76 1012.7
20260509203602 54 0.0 0.0 0.00 0.00 0.00 76 1012.7
20260509203103 54 0.0 0.0 0.00 0.00 0.00 77 1012.7
20260509202602 54 0.0 0.0 0.00 0.00 0.00 77 1012.7
20260509202102 54 0.0 0.0 0.00 0.00 0.00 77 1012.6
20260509201602 54 0.0 0.0 0.00 0.00 0.00 77 1012.5
20260509201102 54 0.0 0.0 0.00 0.00 0.00 77 1012.4
20260509200603 54 0.0 0.0 0.00 0.00 0.00 77 1012.3
20260509200103 55 0.0 0.0 0.00 0.00 0.00 79 1012.3
20260509195602 55 0.0 0.0 0.00 0.00 0.00 78 1012.2
20260509195102 55 0.0 0.0 0.00 0.00 0.00 79 1012.1
20260509194602 55 0.0 0.0 0.00 0.00 0.00 79 1012.0
20260509194102 55 0.0 0.0 0.00 0.00 0.00 80 1011.9
20260509193603 55 0.0 0.0 0.00 0.00 0.00 80 1011.9
20260509193103 55 0.0 0.0 0.00 0.00 0.00 81 1011.9
20260509192602 55 0.0 0.0 0.00 0.00 0.00 81 1011.8
20260509192102 55 0.0 0.0 0.00 0.00 0.00 79 1011.7
20260509191602 55 0.0 0.0 0.00 0.00 0.00 80 1011.6
20260509191102 55 0.0 0.0 0.00 0.00 0.00 80 1011.6
20260509190602 55 0.0 0.0 0.00 0.00 0.00 79 1011.5
20260509185603 56 0.0 0.0 0.00 0.00 0.00 77 1011.4
20260509185103 55 0.0 0.0 0.00 0.00 0.00 77 1011.4
20260509184603 55 0.0 0.0 0.00 0.00 0.00 76 1011.4
20260509184102 55 0.0 0.0 0.00 0.00 0.00 76 1011.3
20260509183102 55 0.0 0.0 0.00 0.00 0.00 75 1011.2
20260509182602 56 0.0 0.0 0.00 0.00 0.00 75 1011.0
20260509182102 56 0.0 0.0 0.00 0.00 0.00 75 1010.8
20260509181603 56 0.0 0.0 0.00 0.00 0.00 74 1010.7
20260509181102 56 0.0 0.0 0.00 0.00 0.00 74 1010.6
20260509180601 56 0.0 0.0 0.00 0.00 0.00 74 1010.6
20260509175602 56 0.0 0.0 0.00 0.00 0.00 75 1010.7
20260509175102 56 0.0 0.0 0.00 0.00 0.00 74 1010.8
20260509174602 56 0.0 0.0 0.00 0.00 0.00 73 1010.8
20260509174103 56 0.0 0.0 0.00 0.00 0.00 73 1010.8
20260509173602 56 0.0 0.0 0.00 0.00 0.00 72 1010.9
20260509173102 56 0.0 0.0 0.00 0.00 0.00 72 1010.9
20260509172102 57 0.0 0.0 0.00 0.00 0.00 70 1010.9
20260509171602 57 0.0 0.0 0.00 0.00 0.00 70 1010.9
20260509171102 57 0.0 0.0 0.00 0.00 0.00 69 1011.0
20260509170603 58 0.0 0.0 0.00 0.00 0.00 67 1011.1
20260509165603 58 0.0 0.0 0.00 0.00 0.00 66 1011.2
20260509165102 58 0.0 0.0 0.00 0.00 0.00 65 1011.2
20260509164602 58 0.0 0.0 0.00 0.00 0.00 64 1011.2
20260509164103 58 0.0 0.0 0.00 0.00 0.00 63 1011.3
20260509163603 59 0.0 0.0 0.00 0.00 0.00 62 1011.3
20260509163103 59 0.0 0.0 0.00 0.00 0.00 61 1011.4
20260509162602 59 0.0 0.0 0.00 0.00 0.00 61 1011.3
20260509162102 59 0.0 0.0 0.00 0.00 0.00 61 1011.3
20260509161603 59 0.0 0.0 0.00 0.00 0.00 61 1011.2
20260509161102 59 0.0 0.0 0.00 0.00 0.00 61 1011.2
20260509160603 59 0.0 0.0 0.00 0.00 0.00 61 1011.1
20260509155602 59 0.0 0.0 0.00 0.00 0.00 62 1011.0
20260509155102 59 0.0 0.0 0.00 0.00 0.00 61 1011.0
20260509154604 59 0.0 0.0 0.00 0.00 0.00 62 1010.9
20260509154102 59 0.0 0.0 0.00 0.00 0.00 61 1010.8
20260509153602 61 0.0 0.0 0.00 0.00 0.00 59 1010.7
20260509153102 62 0.0 0.0 0.00 0.00 0.00 59 1010.7
20260509152602 62 0.0 0.0 0.00 0.00 0.00 60 1010.6
20260509152102 61 0.0 0.0 0.00 0.00 0.00 61 1010.7
20260509151603 61 0.0 0.0 0.00 0.00 0.00 62 1010.6
20260509151103 62 0.0 0.0 0.00 0.00 0.00 63 1010.5
20260509150603 60 0.0 0.0 0.00 0.00 0.00 63 1010.7
20260509145602 59 0.0 0.0 0.00 0.00 0.00 63 1011.0
20260509145102 58 0.0 0.0 0.00 0.00 0.00 63 1011.1
20260509144603 59 0.0 0.0 0.00 0.00 0.00 63 1011.1
20260509144102 59 0.0 0.0 0.00 0.00 0.00 63 1011.2
20260509143603 58 0.0 0.0 0.00 0.00 0.00 62 1011.2
20260509143103 59 0.0 0.0 0.00 0.00 0.00 62 1011.3
20260509142602 58 0.0 0.0 0.00 0.00 0.00 63 1011.4
20260509142102 58 0.0 0.0 0.00 0.00 0.00 63 1011.5
20260509141602 58 0.0 0.0 0.00 0.00 0.00 63 1011.5
20260509141103 58 0.0 0.0 0.00 0.00 0.00 63 1011.7
20260509140602 58 0.0 0.0 0.00 0.00 0.00 63 1011.8
20260509135602 59 0.0 0.0 0.00 0.00 0.00 62 1012.0
20260509135102 59 0.0 0.0 0.00 0.00 0.00 62 1012.1
20260509134602 59 0.0 0.0 0.00 0.00 0.00 62 1012.0
20260509134102 59 0.0 0.0 0.00 0.00 0.00 62 1012.1
20260509133603 59 0.0 0.0 0.00 0.00 0.00 62 1012.1
20260509133102 59 0.0 0.0 0.00 0.00 0.00 62 1012.0
20260509132603 59 0.0 0.0 0.00 0.00 0.00 61 1011.9
20260509132102 59 0.0 0.0 0.00 0.00 0.00 61 1012.0
20260509131602 59 0.0 0.0 0.00 0.00 0.00 60 1011.9
20260509131103 59 0.0 0.0 0.00 0.00 0.00 59 1011.9
20260509130602 60 0.0 0.0 0.00 0.00 0.00 58 1012.0
20260509125604 60 0.0 0.0 0.00 0.00 0.00 58 1012.0
20260509125102 60 0.0 0.0 0.00 0.00 0.00 58 1012.1
20260509124602 60 0.0 0.0 0.00 0.00 0.00 57 1012.1
20260509124103 60 0.0 0.0 0.00 0.00 0.00 57 1012.2
20260509123603 60 0.0 0.0 0.00 0.00 0.00 57 1012.4
20260509123102 60 0.0 0.0 0.00 0.00 0.00 57 1012.5
20260509122603 59 0.0 0.0 0.00 0.00 0.00 57 1012.5
20260509122102 59 0.0 0.0 0.00 0.00 0.00 56 1012.5
20260509121602 60 0.0 0.0 0.00 0.00 0.00 55 1012.6
20260509121102 60 0.0 0.0 0.00 0.00 0.00 55 1012.6
20260509120602 60 0.0 0.0 0.00 0.00 0.00 55 1012.6
20260509115602 60 0.0 0.0 0.00 0.00 0.00 54 1012.3
20260509115103 60 0.0 0.0 0.00 0.00 0.00 54 1012.3
20260509114602 60 0.0 0.0 0.00 0.00 0.00 55 1012.1
20260509114102 60 0.0 0.0 0.00 0.00 0.00 55 1012.2
20260509113602 60 0.0 0.0 0.00 0.00 0.00 56 1012.2
20260509113102 60 0.0 0.0 0.00 0.00 0.00 56 1012.2
20260509112603 60 0.0 0.0 0.00 0.00 0.00 56 1012.4
20260509111602 60 0.0 0.0 0.00 0.00 0.00 56 1012.7
20260509111102 59 0.0 0.0 0.00 0.00 0.00 57 1012.7
20260509110602 59 0.0 0.0 0.00 0.00 0.00 57 1012.7
20260509110103 59 0.0 0.0 0.00 0.00 0.00 58 1012.8
20260509105603 59 0.0 0.0 0.00 0.00 0.00 59 1013.0
20260509105102 58 0.0 0.0 0.00 0.00 0.00 59 1013.1
20260509104602 58 0.0 0.0 0.00 0.00 0.00 58 1013.3
20260509104108 58 0.0 0.0 0.00 0.00 0.00 60 1013.4
20260509103602 58 0.0 0.0 0.00 0.00 0.00 60 1013.3
20260509103103 58 0.0 0.0 0.00 0.00 0.00 60 1013.3
20260509102603 58 0.0 0.0 0.00 0.00 0.00 60 1013.4
20260509101602 58 0.0 0.0 0.00 0.00 0.00 59 1013.4
20260509101102 57 0.0 0.0 0.00 0.00 0.00 60 1013.3
20260509100603 57 0.0 0.0 0.00 0.00 0.00 60 1013.2
20260509095602 57 0.0 0.0 0.00 0.00 0.00 62 1013.3
20260509095102 57 0.0 0.0 0.00 0.00 0.00 61 1013.2
20260509094602 57 0.0 0.0 0.00 0.00 0.00 62 1013.2
20260509094102 56 0.0 0.0 0.00 0.00 0.00 63 1013.4
20260509093603 56 0.0 0.0 0.00 0.00 0.00 63 1013.4
20260509093102 56 0.0 0.0 0.00 0.00 0.00 64 1013.3
20260509092102 55 0.0 0.0 0.00 0.00 0.00 64 1013.5
20260509091602 55 0.0 0.0 0.00 0.00 0.00 64 1013.5
20260509091102 55 0.0 0.0 0.00 0.00 0.00 65 1013.7
20260509090602 55 0.0 0.0 0.00 0.00 0.00 66 1013.6
20260509085602 55 0.0 0.0 0.00 0.00 0.00 65 1013.4
20260509085102 54 0.0 0.0 0.00 0.00 0.00 66 1013.6
20260509084603 54 0.0 0.0 0.00 0.00 0.00 67 1013.7
20260509084103 54 0.0 0.0 0.00 0.00 0.00 67 1013.7
20260509083602 54 0.0 0.0 0.00 0.00 0.00 67 1013.6
20260509083103 53 0.0 0.0 0.00 0.00 0.00 68 1013.7
20260509082603 54 0.0 0.0 0.00 0.00 0.00 68 1013.7
20260509082103 53 0.0 0.0 0.00 0.00 0.00 68 1013.7
20260509081602 54 0.0 0.0 0.00 0.00 0.00 67 1013.6
20260509081102 54 0.0 0.0 0.00 0.00 0.00 65 1013.5
20260509080602 54 0.0 0.0 0.00 0.00 0.00 64 1013.7
20260509075603 54 0.0 0.0 0.00 0.00 0.00 65 1013.6
20260509075102 54 0.0 0.0 0.00 0.00 0.00 66 1013.6
20260509074602 54 0.0 0.0 0.00 0.00 0.00 64 1013.7
20260509074102 54 0.0 0.0 0.00 0.00 0.00 64 1013.6
20260509073602 54 0.0 0.0 0.00 0.00 0.00 66 1013.7
20260509073103 53 0.0 0.0 0.00 0.00 0.00 67 1013.7
20260509072603 54 0.0 0.0 0.00 0.00 0.00 67 1013.7
20260509072103 53 0.0 0.0 0.00 0.00 0.00 69 1013.8
20260509071102 53 0.0 0.0 0.00 0.00 0.00 69 1014.1
20260509070602 53 0.0 0.0 0.00 0.00 0.00 70 1014.3
20260509065602 51 0.0 0.0 0.00 0.00 0.00 73 1014.7
20260509065103 51 0.0 0.0 0.00 0.00 0.00 72 1014.8
20260509064603 51 0.0 0.0 0.00 0.00 0.00 72 1014.9
20260509064102 51 0.0 0.0 0.00 0.00 0.00 72 1014.9
20260509063603 51 0.0 0.0 0.00 0.00 0.00 72 1015.1
20260509063101 51 0.0 0.0 0.00 0.00 0.00 71 1015.1
20260509062602 51 0.0 0.0 0.00 0.00 0.00 71 1015.2
20260509062102 51 0.0 0.0 0.00 0.00 0.00 73 1015.1
20260509061602 51 0.0 0.0 0.00 0.00 0.00 71 1015.0
20260509060603 52 0.0 0.0 0.00 0.00 0.00 70 1015.1
20260509055602 51 0.0 0.0 0.00 0.00 0.00 72 1014.9
20260509055102 51 0.0 0.0 0.00 0.00 0.00 72 1015.0
20260509054602 51 0.0 0.0 0.00 0.00 0.00 74 1015.0
20260509054102 51 0.0 0.0 0.00 0.00 0.00 73 1014.9
20260509053602 51 0.0 0.0 0.00 0.00 0.00 75 1014.7
20260509053102 50 0.0 0.0 0.00 0.00 0.00 75 1014.8
20260509052103 50 0.0 0.0 0.00 0.00 0.00 77 1014.8
20260509051102 50 0.0 0.0 0.00 0.00 0.00 77 1014.8
20260509045602 50 0.0 0.0 0.00 0.00 0.00 75 1014.7
20260509044603 50 0.0 0.0 0.00 0.00 0.00 76 1014.8
20260509044102 50 0.0 0.0 0.00 0.00 0.00 76 1014.7
20260509043602 50 0.0 0.0 0.00 0.00 0.00 76 1014.7
20260509043103 50 0.0 0.0 0.00 0.00 0.00 76 1014.8
20260509042602 50 0.0 0.0 0.00 0.00 0.00 77 1014.7
20260509042102 50 0.0 0.0 0.00 0.00 0.00 75 1014.7